CW5752 Weather Reports


time (UTC)temp
F
wind
direction
speed
knots
gust
knots
rain 1hr
in
rain 24hr
in
rain mn
in
humidity
%
barometer
mb
20260507062520 46 0.0 0.0 0.00 0.01 0.00 90 1016.4
20260507061520 46 0.0 0.0 0.00 0.02 0.00 90 1016.4
20260507060535 46 0.0 0.0 0.00 0.02 0.00 90 1016.4
20260507055541 46 0.0 0.0 0.00 0.02 0.00 90 1016.5
20260507054601 46 0.0 0.0 0.00 0.02 0.00 90 1016.5
20260507053521 46 0.0 0.0 0.00 0.02 0.00 89 1016.6
20260507052521 46 0.0 0.0 0.00 0.02 0.00 89 1016.5
20260507051521 46 0.0 0.0 0.00 0.02 0.00 88 1016.5
20260507050521 47 0.0 0.0 0.00 0.02 0.00 85 1016.4
20260507045522 47 0.0 0.0 0.00 0.04 0.03 85 1016.4
20260507044516 47 0.0 0.0 0.00 0.06 0.03 85 1016.1
20260507043516 48 0.0 0.0 0.00 0.09 0.03 83 1016.2
20260507042521 48 0.0 0.0 0.00 0.10 0.03 85 1016.2
20260507041521 48 0.0 0.0 0.00 0.10 0.03 86 1016.2
20260507040542 48 0.0 0.0 0.00 0.10 0.03 85 1016.1
20260507035521 47 0.0 0.0 0.00 0.10 0.03 84 1016.0
20260507034521 47 0.0 0.0 0.00 0.11 0.03 83 1016.1
20260507033517 48 0.0 0.0 0.00 0.11 0.03 80 1016.3
20260507032516 48 0.0 0.0 0.00 0.12 0.03 80 1016.4
20260507031541 49 0.0 0.0 0.00 0.15 0.03 82 1016.3
20260507030521 49 0.0 0.0 0.00 0.16 0.03 81 1015.8
20260507025542 49 0.0 0.0 0.00 0.19 0.03 77 1015.8
20260507024521 49 0.0 0.0 0.00 0.21 0.03 76 1016.1
20260507023521 50 0.0 0.0 0.00 0.22 0.03 74 1016.2
20260507022516 51 0.0 0.0 0.00 0.23 0.03 74 1016.1
20260507021521 51 0.0 0.0 0.00 0.23 0.03 70 1015.9
20260507020521 51 0.0 0.0 0.00 0.29 0.03 72 1015.9
20260507015522 52 0.0 0.0 0.00 0.30 0.03 73 1015.8
20260507014521 52 0.0 0.0 0.00 0.32 0.03 73 1015.5
20260507013521 53 0.0 0.0 0.00 0.33 0.03 72 1015.5
20260507012521 54 0.0 0.0 0.00 0.33 0.03 66 1015.5
20260507011516 55 329 0.0 1.7 0.00 0.34 0.03 66 1015.5
20260507010521 56 329 0.0 1.7 0.00 0.37 0.03 65 1015.3
20260507005521 56 330 0.0 1.7 0.00 0.39 0.03 62 1015.1
20260507004601 57 0.0 0.0 0.00 0.46 0.03 61 1014.9
20260507003521 58 330 0.0 1.7 0.00 0.46 0.03 61 1014.8
20260507002541 59 330 0.9 3.5 0.00 0.46 0.03 57 1014.8
20260507001516 59 329 0.9 3.5 0.00 0.46 0.03 57 1014.8
20260507000516 60 334 0.0 2.6 0.00 0.50 0.03 57 1014.7
20260506235521 60 334 1.7 4.3 0.00 0.50 0.03 56 1014.6
20260506234521 60 335 1.7 6.1 0.00 0.50 0.03 53 1014.4
20260506233521 61 334 1.7 5.2 0.00 0.50 0.03 51 1014.4
20260506232601 62 336 0.9 5.2 0.00 0.50 0.03 54 1014.3
20260506231522 61 350 1.7 4.3 0.00 0.50 0.03 56 1014.3
20260506230537 60 347 1.7 3.5 0.00 0.50 0.03 56 1014.4
20260506225541 61 345 2.6 7.0 0.00 0.50 0.03 55 1014.4
20260506224521 61 338 0.9 3.5 0.00 0.50 0.03 56 1014.5
20260506223521 62 327 0.9 4.3 0.00 0.50 0.03 51 1014.8
20260506222521 61 308 1.7 4.3 0.00 0.50 0.03 54 1014.8
20260506221602 60 315 0.0 1.7 0.00 0.50 0.03 60 1014.7
20260506220541 61 330 0.0 3.5 0.00 0.50 0.03 56 1015.0
20260506215516 59 341 0.0 0.9 0.00 0.51 0.03 63 1015.1
20260506214521 59 341 0.0 3.5 0.00 0.51 0.03 64 1015.1
20260506213521 60 340 0.9 4.3 0.00 0.51 0.03 59 1015.0
20260506212521 61 325 1.7 3.5 0.00 0.51 0.03 60 1015.1
20260506211521 61 330 1.7 4.3 0.00 0.51 0.03 56 1015.0
20260506210521 62 298 0.9 4.3 0.00 0.51 0.03 55 1015.0
20260506205536 61 305 0.9 3.5 0.00 0.51 0.03 53 1015.0
20260506204541 61 344 0.9 4.3 0.00 0.52 0.03 53 1015.1
20260506203521 61 330 1.7 3.5 0.00 0.52 0.03 56 1015.2
20260506202521 61 334 0.9 3.5 0.00 0.52 0.03 53 1015.3
20260506201521 62 349 1.7 4.3 0.00 0.53 0.03 50 1015.6
20260506200521 62 272 1.7 6.1 0.00 0.53 0.03 52 1015.6
20260506195521 62 314 0.9 3.5 0.00 0.53 0.03 59 1015.4
20260506194516 62 331 0.9 4.3 0.00 0.53 0.03 56 1015.3
20260506193521 62 299 1.7 4.3 0.00 0.53 0.03 60 1015.2
20260506192541 63 327 1.7 4.3 0.00 0.53 0.03 55 1015.3
20260506191521 61 328 0.9 4.3 0.00 0.53 0.03 62 1015.2
20260506190521 61 350 0.0 4.3 0.00 0.54 0.03 54 1015.2
20260506185541 61 272 0.9 5.2 0.00 0.55 0.03 63 1015.1
20260506184516 61 322 0.0 6.1 0.00 0.60 0.03 62 1015.2
20260506183516 62 331 0.9 5.2 0.00 0.60 0.03 64 1015.3
20260506182521 60 310 0.0 4.3 0.00 0.60 0.03 62 1015.5
20260506181521 60 280 0.9 4.3 0.00 0.60 0.03 62 1015.5
20260506180521 58 303 1.7 6.1 0.00 0.60 0.03 60 1015.7
20260506175521 60 319 0.9 4.3 0.00 0.60 0.03 64 1015.8
20260506174521 59 324 0.9 6.1 0.00 0.60 0.03 67 1015.8
20260506173516 58 322 0.0 3.5 0.00 0.60 0.03 64 1015.7
20260506172521 58 321 0.9 5.2 0.00 0.60 0.03 69 1015.6
20260506171521 58 323 0.9 5.2 0.00 0.60 0.03 66 1015.8
20260506170521 58 293 0.9 5.2 0.00 0.60 0.03 67 1015.9
20260506165521 57 331 0.0 1.7 0.00 0.60 0.03 69 1015.7
20260506164521 58 306 0.9 4.3 0.00 0.60 0.03 68 1015.7
20260506163521 57 272 0.0 3.5 0.00 0.60 0.03 67 1015.9
20260506162516 57 273 0.9 6.1 0.00 0.60 0.03 71 1015.7
20260506161521 57 311 0.0 2.6 0.00 0.60 0.03 69 1015.6
20260506160541 56 311 0.0 3.5 0.00 0.60 0.03 70 1015.6
20260506155521 56 311 0.0 3.5 0.00 0.60 0.03 76 1015.2
20260506154521 56 312 0.0 3.5 0.00 0.60 0.03 75 1015.3
20260506153521 55 312 0.0 3.5 0.00 0.60 0.03 77 1015.2
20260506152516 54 312 0.0 3.5 0.00 0.60 0.03 80 1015.2
20260506151516 53 317 0.0 2.6 0.00 0.60 0.03 84 1015.1
20260506150521 52 316 0.0 2.6 0.00 0.60 0.03 86 1015.6
20260506145521 51 315 0.0 2.6 0.00 0.60 0.03 87 1015.8
20260506144521 50 327 0.0 1.7 0.00 0.60 0.03 87 1015.5
20260506143519 50 327 0.0 1.7 0.00 0.60 0.03 88 1015.3
20260506142521 50 327 0.0 1.7 0.00 0.60 0.03 88 1015.1
20260506141536 50 327 0.0 1.7 0.00 0.60 0.03 89 1014.6
20260506140521 50 327 0.9 4.3 0.00 0.61 0.03 89 1014.9
20260506135521 50 342 0.9 6.1 0.00 0.62 0.03 88 1014.8
20260506134521 50 311 0.9 3.5 0.00 0.66 0.03 89 1014.4
20260506133521 50 311 0.9 3.5 0.00 0.71 0.03 89 1014.4
20260506132521 50 312 0.0 1.7 0.00 0.78 0.03 91 1014.4
20260506131521 49 312 0.0 1.7 0.00 0.83 0.03 90 1014.3
20260506130516 49 312 0.0 1.7 0.00 0.97 0.03 90 1013.9
20260506125601 49 312 0.0 3.5 0.00 1.11 0.03 91 1013.8
20260506124542 48 312 0.0 2.6 0.00 1.23 0.03 91 1013.6
20260506123521 48 311 0.0 2.6 0.00 1.23 0.03 92 1013.7
20260506122521 48 311 0.0 4.3 0.00 1.23 0.03 92 1014.0
20260506121521 48 260 0.9 2.6 0.00 1.23 0.03 92 1014.0
20260506120516 47 260 0.0 1.7 0.00 1.23 0.03 92 1013.8
20260506115516 47 260 0.0 3.5 0.00 1.23 0.03 92 1013.2
20260506114702 47 259 0.0 0.9 0.00 1.23 0.03 93 1013.3
20260506113521 47 0.0 1.7 0.00 1.23 0.03 93 1013.0
20260506112521 47 0.0 0.0 0.00 1.23 0.03 93 1012.8
20260506111521 47 333 0.0 3.5 0.00 1.23 0.03 93 1012.5
20260506110521 47 0.0 0.0 0.00 1.23 0.03 93 1012.0
20260506105516 47 338 0.0 1.7 0.00 1.23 0.03 93 1012.2
20260506104541 47 0.0 0.0 0.00 1.23 0.03 93 1012.6
20260506103521 47 338 0.0 1.7 0.00 1.23 0.03 93 1012.9
20260506102521 47 338 0.0 1.7 0.00 1.23 0.03 93 1012.6
20260506101521 47 337 0.0 2.6 0.00 1.23 0.03 93 1012.9
20260506100521 47 0.0 0.0 0.00 1.23 0.03 93 1012.8
20260506095521 47 0.0 0.0 0.00 1.23 0.03 93 1012.7
20260506094556 47 340 0.0 1.7 0.00 1.23 0.03 93 1011.9
20260506093521 47 340 0.0 1.7 0.00 1.23 0.03 93 1011.7
20260506092521 47 0.0 0.0 0.00 1.23 0.03 93 1011.8
20260506091521 47 0.0 0.0 0.00 1.23 0.03 93 1011.9
20260506090541 47 0.0 1.7 0.00 1.23 0.03 93 1011.9
20260506085521 47 340 0.0 1.7 0.00 1.23 0.03 93 1011.8
20260506084521 47 0.0 1.7 0.00 1.23 0.03 93 1011.6
20260506083516 46 0.0 2.6 0.00 1.23 0.03 93 1012.0
20260506082521 46 340 0.0 1.7 0.00 1.23 0.03 93 1011.6
20260506081521 46 0.0 0.9 0.00 1.23 0.03 93 1011.6
20260506080521 46 0.0 1.7 0.00 1.23 0.03 93 1012.4
20260506073516 46 0.0 0.9 0.01 1.23 0.03 93 1010.9
20260506072536 46 0.0 2.6 0.01 1.23 0.03 92 1011.0
20260506071521 46 341 0.9 2.6 0.02 1.23 0.03 92 1011.2
20260506070521 46 341 0.0 1.7 0.02 1.23 0.03 92 1011.4